• In Deutschland
  • Länderverzeichnis
  • Für 7 Tage
  • Wassertemperatur
  • Satellitenkarten
  • Wetterkarte
  • Widgets
  • user-avatar
    Anmelden

    Stündliche Wetter Townsville

    Heute, 23 April, Sonntag

    Zeit Temperatur Niederschläge Wind Luftdruck Luftfeuchtigkeit
    00:00 +21°C° 0 mm 5 m/S 756 mmHg 94%
    01:00 +21°C° 0 mm 4 m/S 755 mmHg 95%
    02:00 +20°C° 0,1 mm 4 m/S 755 mmHg 96%
    03:00 +20°C° 0,1 mm 4 m/S 755 mmHg 96%
    04:00 +20°C° 0 mm 4 m/S 755 mmHg 97%
    05:00 +20°C° 0,1 mm 4 m/S 755 mmHg 97%
    06:00 +20°C° 0,1 mm 4 m/S 755 mmHg 97%
    07:00 +20°C° 0,1 mm 4 m/S 755 mmHg 97%
    08:00 +22°C° 0,2 mm 4 m/S 755 mmHg 88%
    09:00 +25°C° 0,2 mm 5 m/S 756 mmHg 79%
    10:00 +27°C° 0 mm 5 m/S 756 mmHg 70%
    11:00 +28°C° 0,3 mm 5 m/S 756 mmHg 69%
    12:00 +28°C° 0,3 mm 5 m/S 755 mmHg 68%
    13:00 +29°C° 0,3 mm 5 m/S 755 mmHg 67%
    14:00 +28°C° 0,1 mm 5 m/S 755 mmHg 68%
    15:00 +28°C° 0,1 mm 5 m/S 754 mmHg 70%
    16:00 +28°C° 0 mm 5 m/S 754 mmHg 70%
    17:00 +26°C° 0,1 mm 5 m/S 755 mmHg 76%
    18:00 +25°C° 0,1 mm 5 m/S 755 mmHg 83%
    19:00 +23°C° 0,1 mm 5 m/S 755 mmHg 89%
    20:00 +22°C° 0,1 mm 5 m/S 755 mmHg 91%
    21:00 +22°C° 0,1 mm 5 m/S 756 mmHg 93%
    22:00 +21°C° 0,1 mm 5 m/S 756 mmHg 94%
    23:00 +21°C° 0,1 mm 5 m/S 756 mmHg 95%

    Morgen, 24 April, Montag

    Zeit Temperatur Niederschläge Wind Luftdruck Luftfeuchtigkeit
    00:00 +21°C° 0,1 mm 4 m/S 756 mmHg 96%
    01:00 +20°C° 0,1 mm 4 m/S 756 mmHg 96%
    02:00 +20°C° 0,1 mm 4 m/S 755 mmHg 97%
    03:00 +20°C° 0,1 mm 4 m/S 755 mmHg 97%
    04:00 +20°C° 0,1 mm 4 m/S 755 mmHg 98%
    05:00 +20°C° 0 mm 4 m/S 755 mmHg 98%
    06:00 +20°C° 0 mm 4 m/S 755 mmHg 98%
    07:00 +20°C° 0 mm 4 m/S 755 mmHg 98%
    08:00 +22°C° 0 mm 4 m/S 755 mmHg 89%
    09:00 +25°C° 0 mm 5 m/S 756 mmHg 80%
    10:00 +27°C° 0 mm 5 m/S 756 mmHg 71%
    11:00 +29°C° 0,1 mm 5 m/S 755 mmHg 66%
    12:00 +30°C° 0,1 mm 5 m/S 755 mmHg 60%
    13:00 +32°C° 0,1 mm 5 m/S 754 mmHg 55%
    14:00 +30°C° 0,1 mm 5 m/S 754 mmHg 59%
    15:00 +29°C° 0,1 mm 5 m/S 753 mmHg 63%
    16:00 +29°C° 0,1 mm 5 m/S 753 mmHg 67%
    17:00 +27°C° 0 mm 5 m/S 754 mmHg 74%
    18:00 +26°C° 0 mm 5 m/S 754 mmHg 82%
    19:00 +23°C° 0 mm 5 m/S 754 mmHg 90%
    20:00 +23°C° 0,1 mm 5 m/S 755 mmHg 91%
    21:00 +23°C° 0,1 mm 5 m/S 755 mmHg 92%
    22:00 +22°C° 0,1 mm 5 m/S 755 mmHg 94%
    23:00 +22°C° 0,1 mm 4 m/S 755 mmHg 94%

    übermorgen, 25 April, Dienstag

    Zeit Temperatur Niederschläge Wind Luftdruck Luftfeuchtigkeit
    00:00 +22°C° 0,1 mm 4 m/S 755 mmHg 94%
    01:00 +22°C° 0,1 mm 4 m/S 755 mmHg 94%
    02:00 +21°C° 0 mm 4 m/S 754 mmHg 95%
    03:00 +21°C° 0 mm 4 m/S 754 mmHg 96%
    04:00 +20°C° 0 mm 4 m/S 754 mmHg 97%
    05:00 +20°C° 0 mm 4 m/S 754 mmHg 97%
    06:00 +20°C° 0 mm 4 m/S 754 mmHg 97%
    07:00 +20°C° 0 mm 4 m/S 755 mmHg 97%
    08:00 +23°C° 0 mm 4 m/S 755 mmHg 87%
    09:00 +26°C° 0 mm 4 m/S 755 mmHg 77%
    10:00 +28°C° 0 mm 4 m/S 756 mmHg 67%
    11:00 +29°C° 0 mm 5 m/S 755 mmHg 64%
    12:00 +30°C° 0 mm 5 m/S 754 mmHg 61%
    13:00 +32°C° 0 mm 5 m/S 754 mmHg 57%
    14:00 +30°C° 0,1 mm 5 m/S 753 mmHg 61%
    15:00 +29°C° 0,1 mm 5 m/S 753 mmHg 64%
    16:00 +29°C° 0,1 mm 5 m/S 752 mmHg 67%
    17:00 +27°C° 0 mm 4 m/S 753 mmHg 75%
    18:00 +25°C° 0 mm 4 m/S 753 mmHg 83%
    19:00 +23°C° 0 mm 4 m/S 754 mmHg 91%
    20:00 +24°C° 0 mm 3 m/S 754 mmHg 92%
    21:00 +22°C° 0 mm 3 m/S 755 mmHg 94%
    22:00 +22°C° 0 mm 3 m/S 755 mmHg 96%
    23:00 +22°C° 0 mm 3 m/S 755 mmHg 96%

    26 April, Mittwoch

    Zeit Temperatur Niederschläge Wind Luftdruck Luftfeuchtigkeit
    00:00 +22°C° 0 mm 3 m/S 754 mmHg 96%
    01:00 +22°C° 0 mm 3 m/S 754 mmHg 97%
    02:00 +22°C° 0 mm 3 m/S 754 mmHg 97%
    03:00 +22°C° 0 mm 3 m/S 753 mmHg 97%
    04:00 +23°C° 0 mm 2 m/S 753 mmHg 97%
    05:00 +21°C° 0 mm 2 m/S 753 mmHg 97%
    06:00 +21°C° 0 mm 2 m/S 753 mmHg 98%
    07:00 +21°C° 0 mm 2 m/S 754 mmHg 98%
    08:00 +24°C° 0 mm 2 m/S 754 mmHg 87%
    09:00 +27°C° 0 mm 2 m/S 754 mmHg 77%
    10:00 +29°C° 0 mm 2 m/S 754 mmHg 66%
    11:00 +30°C° 0 mm 2 m/S 754 mmHg 61%
    12:00 +31°C° 0 mm 2 m/S 753 mmHg 56%
    13:00 +32°C° 0 mm 2 m/S 753 mmHg 51%
    14:00 +31°C° 0 mm 2 m/S 752 mmHg 55%
    15:00 +30°C° 0 mm 3 m/S 752 mmHg 59%
    16:00 +30°C° 0 mm 3 m/S 751 mmHg 62%
    17:00 +28°C° 0 mm 3 m/S 752 mmHg 73%
    18:00 +26°C° 0 mm 2 m/S 752 mmHg 84%
    19:00 +24°C° 0 mm 2 m/S 753 mmHg 94%
    20:00 +24°C° 0 mm 2 m/S 753 mmHg 95%
    21:00 +23°C° 0 mm 1 m/S 753 mmHg 95%
    22:00 +23°C° 0 mm 1 m/S 754 mmHg 96%
    23:00 +23°C° 0 mm 1 m/S 753 mmHg 96%

    27 April, Donnerstag

    Zeit Temperatur Niederschläge Wind Luftdruck Luftfeuchtigkeit
    00:00 +23°C° 0 mm 1 m/S 753 mmHg 96%
    01:00 +22°C° 0 mm 1 m/S 753 mmHg 96%
    02:00 +22°C° 0 mm 1 m/S 752 mmHg 96%
    03:00 +22°C° 0 mm 1 m/S 752 mmHg 96%
    04:00 +22°C° 0 mm 1 m/S 752 mmHg 96%
    05:00 +22°C° 0 mm 1 m/S 752 mmHg 96%
    06:00 +22°C° 0 mm 1 m/S 753 mmHg 96%
    07:00 +20°C° 0 mm 0 m/S 753 mmHg 96%
    08:00 +25°C° 0 mm 1 m/S 754 mmHg 84%
    09:00 +27°C° 0 mm 1 m/S 754 mmHg 73%
    10:00 +29°C° 0 mm 1 m/S 754 mmHg 61%
    11:00 +31°C° 0 mm 1 m/S 753 mmHg 55%
    12:00 +33°C° 0 mm 1 m/S 753 mmHg 49%
    13:00 +34°C° 0 mm 1 m/S 752 mmHg 43%
    14:00 +34°C° 0 mm 2 m/S 752 mmHg 47%
    15:00 +32°C° 0 mm 2 m/S 751 mmHg 50%
    16:00 +31°C° 0 mm 3 m/S 751 mmHg 54%
    17:00 +29°C° 0,2 mm 3 m/S 751 mmHg 65%
    18:00 +27°C° 0,2 mm 2 m/S 752 mmHg 76%
    19:00 +25°C° 0,2 mm 2 m/S 752 mmHg 87%
    20:00 +24°C° 0,2 mm 2 m/S 753 mmHg 89%
    21:00 +24°C° 0,2 mm 2 m/S 753 mmHg 92%
    22:00 +24°C° 0,2 mm 1 m/S 754 mmHg 94%
    23:00 +23°C° 0,1 mm 1 m/S 753 mmHg 94%

    28 April, Freitag

    Zeit Temperatur Niederschläge Wind Luftdruck Luftfeuchtigkeit
    00:00 +23°C° 0,1 mm 1 m/S 753 mmHg 95%
    01:00 +23°C° 0,1 mm 1 m/S 753 mmHg 95%
    02:00 +23°C° 0,2 mm 1 m/S 753 mmHg 90%
    03:00 +22°C° 0,2 mm 1 m/S 753 mmHg 85%
    04:00 +22°C° 0,2 mm 1 m/S 753 mmHg 79%
    05:00 +21°C° 0 mm 2 m/S 754 mmHg 75%
    06:00 +21°C° 0 mm 3 m/S 754 mmHg 72%
    07:00 +20°C° 0 mm 3 m/S 755 mmHg 68%
    08:00 +22°C° 0 mm 3 m/S 755 mmHg 70%
    09:00 +25°C° 0 mm 4 m/S 755 mmHg 71%
    10:00 +26°C° 0 mm 4 m/S 756 mmHg 73%
    11:00 +26°C° 0 mm 4 m/S 755 mmHg 73%
    12:00 +27°C° 0 mm 4 m/S 754 mmHg 73%
    13:00 +27°C° 0 mm 5 m/S 754 mmHg 73%
    14:00 +27°C° 0 mm 5 m/S 754 mmHg 71%
    15:00 +27°C° 0 mm 5 m/S 753 mmHg 69%
    16:00 +28°C° 0 mm 5 m/S 753 mmHg 67%
    17:00 +26°C° 0 mm 4 m/S 754 mmHg 73%
    18:00 +23°C° 0 mm 4 m/S 754 mmHg 79%
    19:00 +22°C° 0 mm 4 m/S 755 mmHg 85%
    20:00 +22°C° 0 mm 4 m/S 755 mmHg 87%
    21:00 +21°C° 0 mm 3 m/S 755 mmHg 88%
    22:00 +21°C° 0 mm 3 m/S 755 mmHg 90%
    23:00 +21°C° 0 mm 3 m/S 755 mmHg 91%
    Mehr zeigen